Location: Juzet
(42.9779°N, 0.7597°E)
Time: 19:08:43
(UTC+00:00)

Lacrosse 5 - Pass Details

Date: 14 July 2020
Orbit: 717 x 720 km, 57.0° (Epoch: 09 August)

Event Time Altitude Azimuth Distance (km) Brightness Sun altitude
Exits shadow 00:10:41 72° 260° (W) 754 1.8 -25.4°
Maximum altitude 00:11:07 80° 317° (NW) 732 1.8 -25.4°
Drops below altitude 10° 00:16:13 10° 45° (NE) 2,204 5.0 -25.3°
Sets 00:18:36 0° 47° (NE) 3,128 5.8 -25.3°
